User: anonymous   Login
Location: Deuil
(48.9767°N, 2.3272°E)
Time: 23:01:59
(UTC+00:00)
Language:

Cosmos 2360 Rocket - Orbit

View from above orbital plane
View from above orbital plane
View from above satellite
View from above satellite

Ground track
Ground track

The orbit data is extracted from the following two-line orbital elements,

1 25407U 98045B   22028.48615520 -.00000102  00000-0 -27363-4 0  9999
2 25407  71.0119  97.5402 0006748 173.2295 186.8920 14.15851589214592
Epoch (UTC): 28 January 2022 11:40:03
Eccentricity: 0.0006748
inclination: 71.0119°
perigee height: 834 km
apogee height: 844 km
right ascension of ascending node: 97.5402°
argument of perigee: 173.2295°
revolutions per day: 14.15851589
mean anomaly at epoch: 186.8920°
orbit number at epoch: 21459

The dashed part of the orbit path shows where the satellite is in the earth's shadow,  

DLR